N8VIM Weather Reports


Display with metric or nautical units.
time (UTC)temp
F
wind
direction
speed
MPH
gust
MPH
rain 1hr
in
rain 24hr
in
rain mn
in
humidity
%
barometer
mb
20200123042947 21 0 0.0 0.0 0.13 0.00 0.00 88 1029.3
20200123042447 21 0 0.0 0.0 0.13 0.00 0.00 86 1029.4
20200123041947 21 0 0.0 0.0 0.13 0.00 0.00 86 1029.4
20200123041447 21 0 0.0 0.0 0.13 0.00 0.00 85 1029.3
20200123040946 22 0 0.0 0.0 0.13 0.00 0.00 85 1029.3
20200123040446 22 0 0.0 0.0 0.13 0.00 0.00 84 1029.3
20200123035947 22 0 0.0 0.0 0.13 0.00 0.00 84 1029.2
20200123035448 22 0 0.0 0.0 0.13 0.00 0.00 84 1029.3
20200123034946 22 0 0.0 0.0 0.13 0.00 0.00 83 1029.2
20200123034447 23 0 0.0 0.0 0.13 0.00 0.00 82 1029.2
20200123033946 24 0 0.0 0.0 0.13 0.00 0.00 81 1029.2
20200123033446 24 0 0.0 0.0 0.13 0.00 0.00 80 1029.1
20200123032947 25 0 0.0 0.0 0.13 0.00 0.00 80 1029.0
20200123032449 25 0 0.0 0.0 0.13 0.00 0.00 79 1028.9
20200123031946 26 0 0.0 0.0 0.13 0.00 0.00 78 1028.9
20200123031447 26 0 0.0 0.0 0.13 0.00 0.00 78 1028.9
20200123030946 26 0 0.0 0.0 0.13 0.00 0.00 78 1028.9
20200123030446 26 0 0.0 0.0 0.13 0.00 0.00 78 1029.0
20200123025947 26 0 0.0 0.0 0.13 0.00 0.00 78 1029.1
20200123025448 26 0 0.0 0.0 0.13 0.00 0.00 78 1029.3
20200123024946 26 0 0.0 0.0 0.13 0.00 0.00 77 1029.3
20200123024447 26 0 0.0 0.0 0.13 0.00 0.00 77 1029.3
20200123023946 26 0 0.0 0.0 0.13 0.00 0.00 78 1029.2
20200123023446 26 0 0.0 0.0 0.13 0.00 0.00 78 1029.3
20200123022947 25 0 0.0 0.0 0.13 0.00 0.00 79 1029.3
20200123022446 25 0 0.0 0.0 0.13 0.00 0.00 78 1029.3
20200123021946 25 0 0.0 0.0 0.13 0.00 0.00 79 1029.2
20200123021447 25 0 0.0 0.0 0.13 0.00 0.00 79 1029.3
20200123020946 25 0 0.0 0.0 0.13 0.00 0.00 79 1029.4
20200123020446 25 359 0.0 2.0 0.13 0.00 0.00 78 1029.4
20200123015947 25 0 1.0 0.0 0.13 0.00 0.00 78 1029.4
20200123015447 25 0 0.0 0.0 0.13 0.00 0.00 78 1029.4
20200123014946 25 0 0.0 0.0 0.13 0.00 0.00 77 1029.3
20200123014447 26 0 0.0 0.0 0.13 0.00 0.00 77 1029.3
20200123013946 26 0 0.0 0.0 0.13 0.00 0.00 79 1029.4
20200123013446 26 0 0.0 0.0 0.13 0.00 0.00 78 1029.3
20200123012947 27 0 0.0 0.0 0.13 0.00 0.00 77 1029.4
20200123011946 27 0 0.0 0.0 0.13 0.00 0.00 73 1029.3
20200123011447 28 0 0.0 0.0 0.13 0.00 0.00 71 1029.3
20200123010946 28 0 0.0 0.0 0.13 0.00 0.00 72 1029.4
20200123010446 28 0 0.0 0.0 0.13 0.00 0.00 72 1029.4
20200123005947 28 0 0.0 0.0 0.13 0.00 0.00 72 1029.4
20200123005446 28 0 0.0 0.0 0.13 0.00 0.00 71 1029.4
20200123004946 27 0 0.0 0.0 0.13 0.00 0.00 71 1029.4
20200123004447 28 0 0.0 0.0 0.13 0.00 0.00 71 1029.5
20200123003946 28 0 0.0 0.0 0.13 0.00 0.00 71 1029.6
20200123003446 28 82 0.0 2.0 0.13 0.00 0.00 71 1029.6
20200123002947 28 82 0.0 2.0 0.13 0.00 0.00 72 1029.7
20200123002446 28 0 1.0 0.0 0.13 0.00 0.00 71 1029.8
20200123001946 28 0 0.0 0.0 0.13 0.00 0.00 72 1029.8
20200123001447 28 0 0.0 0.0 0.13 0.00 0.00 72 1029.9
20200123000946 27 359 0.0 4.0 0.13 0.00 0.00 73 1029.8
20200123000446 27 0 1.0 0.0 0.13 0.00 0.00 73 1029.7
20200122235947 27 359 0.0 2.0 0.13 0.00 0.00 73 1029.7
20200122235447 27 359 0.0 2.0 0.13 0.00 0.00 73 1029.7
20200122234946 27 0 0.0 0.0 0.13 0.00 0.00 74 1029.7
20200122234446 28 0 0.0 0.0 0.13 0.00 0.00 76 1029.7
20200122233946 28 0 0.0 0.0 0.13 0.00 0.00 72 1029.6
20200122233446 28 0 0.0 0.0 0.13 0.00 0.00 70 1029.6
20200122232947 28 0 0.0 0.0 0.13 0.00 0.00 70 1029.6
20200122232446 29 0 0.0 0.0 0.13 0.00 0.00 69 1029.6
20200122231946 29 0 0.0 0.0 0.13 0.00 0.00 67 1029.7
20200122231446 29 0 0.0 0.0 0.13 0.00 0.00 67 1029.7
20200122230946 30 13 0.0 1.0 0.13 0.00 0.00 66 1029.6
20200122230447 30 14 0.0 3.0 0.13 0.00 0.00 64 1029.5
20200122225947 30 20 1.0 1.0 0.13 0.00 0.00 64 1029.5
20200122224947 31 0 0.0 0.0 0.13 0.00 0.00 64 1029.7
20200122224446 31 10 0.0 1.0 0.13 0.00 0.00 63 1029.7
20200122223950 31 0 0.0 0.0 0.13 0.00 0.00 62 1029.7
20200122223446 31 0 0.0 0.0 0.13 0.00 0.00 62 1029.9
20200122222946 32 285 0.0 0.0 0.13 0.00 0.00 62 1029.8
20200122222446 32 0 0.0 0.0 0.13 0.00 0.00 61 1029.8
20200122221946 32 0 0.0 0.0 0.13 0.00 0.00 61 1029.9
20200122221447 33 333 0.0 1.0 0.13 0.00 0.00 59 1029.8
20200122220946 33 0 0.0 0.0 0.13 0.00 0.00 58 1029.8
20200122220446 33 0 0.0 0.0 0.13 0.00 0.00 56 1029.8
20200122215946 34 0 0.0 0.0 0.13 0.00 0.00 56 1029.8
20200122215446 34 0 0.0 0.0 0.13 0.00 0.00 55 1029.7
20200122214946 34 0 0.0 0.0 0.13 0.00 0.00 54 1029.8
20200122214446 35 0 0.0 0.0 0.13 0.00 0.00 55 1029.8
20200122213946 35 0 0.0 0.0 0.13 0.00 0.00 54 1029.8
20200122213446 36 277 0.0 2.0 0.13 0.00 0.00 53 1029.7
20200122212946 36 243 0.0 3.0 0.13 0.00 0.00 52 1029.7
20200122212446 36 239 0.0 1.0 0.13 0.00 0.00 52 1029.7
20200122211946 37 242 0.0 1.0 0.13 0.00 0.00 52 1029.7
20200122211446 37 312 0.0 0.0 0.13 0.00 0.00 52 1029.7
20200122210946 37 329 0.0 4.0 0.13 0.00 0.00 52 1029.7
20200122210446 37 325 1.0 5.0 0.13 0.00 0.00 51 1029.6
20200122205947 37 305 1.0 5.0 0.13 0.00 0.00 51 1029.6
20200122205446 37 276 3.0 5.0 0.13 0.00 0.00 51 1029.7
20200122204946 37 246 1.0 5.0 0.13 0.00 0.00 52 1029.6
20200122204446 37 284 3.0 5.0 0.13 0.00 0.00 52 1029.6
20200122203946 37 323 0.0 5.0 0.13 0.00 0.00 52 1029.4
20200122203449 37 240 4.0 7.0 0.13 0.00 0.00 51 1029.6
20200122202946 37 190 5.0 4.0 0.13 0.00 0.00 51 1029.4
20200122202446 37 214 0.0 6.0 0.13 0.00 0.00 52 1029.5
20200122201946 37 200 4.0 5.0 0.13 0.00 0.00 51 1029.4
20200122201446 37 169 2.0 6.0 0.13 0.00 0.00 52 1029.4
20200122200945 37 255 2.0 5.0 0.13 0.00 0.00 51 1029.4
20200122200445 37 330 1.0 5.0 0.13 0.00 0.00 51 1029.4
20200122195946 37 233 3.0 3.0 0.13 0.00 0.00 49 1029.3
20200122195446 37 311 1.0 3.0 0.13 0.00 0.00 51 1029.4
20200122194945 37 181 0.0 3.0 0.13 0.00 0.00 50 1029.3
20200122194446 37 186 0.0 3.0 0.13 0.00 0.00 51 1029.3
20200122193945 37 333 0.0 4.0 0.13 0.00 0.00 51 1029.3
20200122193445 37 214 2.0 2.0 0.13 0.00 0.00 50 1029.3
20200122192946 37 184 0.0 8.0 0.13 0.00 0.00 51 1029.3
20200122192445 37 304 4.0 4.0 0.13 0.00 0.00 52 1029.3
20200122191945 37 319 1.0 5.0 0.13 0.00 0.00 50 1029.3
20200122191446 37 309 3.0 7.0 0.13 0.00 0.00 50 1029.4
20200122190945 37 318 3.0 8.0 0.13 0.00 0.00 50 1029.4
20200122190445 37 294 6.0 9.0 0.13 0.00 0.00 50 1029.4
20200122185946 37 291 3.0 7.0 0.13 0.00 0.00 50 1029.3
20200122185445 37 311 1.0 7.0 0.13 0.00 0.00 51 1029.2
20200122184945 37 335 4.0 7.0 0.13 0.00 0.00 50 1029.1
20200122184447 37 321 3.0 10.0 0.13 0.00 0.00 50 1029.2
20200122183945 37 315 5.0 11.0 0.13 0.00 0.00 50 1029.1
20200122183445 37 291 7.0 10.0 0.13 0.00 0.00 50 1029.1
20200122182946 37 325 6.0 9.0 0.13 0.00 0.00 50 1029.2
20200122182446 37 280 3.0 6.0 0.13 0.00 0.00 50 1029.2
20200122181945 37 311 3.0 7.0 0.13 0.00 0.00 51 1029.3
20200122181446 37 325 5.0 10.0 0.13 0.00 0.00 51 1029.5
20200122180945 37 293 5.0 9.0 0.13 0.00 0.00 52 1029.5
20200122180445 37 315 4.0 7.0 0.13 0.00 0.00 52 1029.5
20200122175946 37 155 3.0 5.0 0.13 0.00 0.00 51 1029.6
20200122175446 37 190 1.0 5.0 0.13 0.00 0.00 51 1029.6
20200122174945 36 307 1.0 9.0 0.13 0.00 0.00 54 1029.8
20200122174446 36 314 6.0 5.0 0.13 0.00 0.00 51 1030.0
20200122173945 35 198 2.0 8.0 0.13 0.00 0.00 53 1030.0
20200122173445 35 290 6.0 7.0 0.13 0.00 0.00 53 1030.1
20200122172946 35 305 1.0 9.0 0.13 0.00 0.00 54 1030.1
20200122172447 35 245 5.0 5.0 0.13 0.00 0.00 53 1030.2
20200122171945 34 262 0.0 6.0 0.13 0.00 0.00 56 1030.3
20200122171446 34 347 4.0 7.0 0.13 0.00 0.00 55 1030.4
20200122170945 34 169 4.0 8.0 0.13 0.00 0.00 57 1030.4
20200122170445 34 307 3.0 7.0 0.13 0.00 0.00 58 1030.5
20200122165946 33 311 3.0 4.0 0.13 0.00 0.00 57 1030.4
20200122165449 33 309 1.0 8.0 0.13 0.00 0.00 58 1030.5
20200122164945 33 318 5.0 9.0 0.13 0.00 0.00 58 1030.6
20200122164446 33 214 3.0 6.0 0.13 0.00 0.00 57 1030.7
20200122163945 33 332 2.0 8.0 0.13 0.00 0.00 58 1030.8
20200122163445 33 312 6.0 6.0 0.13 0.00 0.00 57 1030.8
20200122162946 33 232 3.0 7.0 0.13 0.00 0.00 59 1030.8
20200122162446 32 200 1.0 6.0 0.13 0.00 0.00 60 1030.8
20200122161945 32 204 4.0 6.0 0.13 0.00 0.00 61 1030.9
20200122161446 32 233 2.0 5.0 0.13 0.00 0.00 60 1031.0
20200122160945 31 177 3.0 6.0 0.13 0.00 0.00 63 1031.0
20200122160445 31 203 4.0 7.0 0.13 0.00 0.00 63 1031.0
20200122155946 31 136 3.0 5.0 0.13 0.00 0.00 63 1031.2
20200122155445 30 221 2.0 5.0 0.13 0.00 0.00 64 1031.3
20200122154945 29 204 0.0 5.0 0.13 0.00 0.00 64 1031.3
20200122154445 29 194 3.0 4.0 0.13 0.00 0.00 65 1031.5
20200122153945 28 184 2.0 2.0 0.13 0.00 0.00 66 1031.5
20200122153446 27 291 0.0 1.0 0.13 0.00 0.00 67 1031.7
20200122152945 27 325 0.0 4.0 0.13 0.00 0.00 68 1031.8
20200122152448 26 304 0.0 5.0 0.13 0.00 0.00 68 1031.8
20200122151945 25 201 1.0 2.0 0.13 0.00 0.00 69 1031.8
20200122151445 24 207 0.0 2.0 0.13 0.00 0.00 71 1031.8
20200122150945 23 205 0.0 2.0 0.13 0.00 0.00 72 1031.7
20200122150445 22 193 1.0 2.0 0.13 0.00 0.00 73 1031.6
20200122145945 22 0 2.0 0.0 0.13 0.00 0.00 74 1031.6
20200122145445 21 336 0.0 2.0 0.13 0.00 0.00 74 1031.6
20200122144945 20 332 0.0 2.0 0.13 0.00 0.00 74 1031.6
20200122144445 19 342 0.0 3.0 0.13 0.00 0.00 76 1031.7
20200122143945 19 339 2.0 3.0 0.13 0.00 0.00 76 1031.7
20200122143445 18 0 2.0 0.0 0.13 0.00 0.00 77 1031.5
20200122142945 17 0 0.0 0.0 0.13 0.00 0.00 80 1031.5
20200122142445 16 0 0.0 0.0 0.13 0.00 0.00 81 1031.6
20200122141945 15 0 0.0 0.0 0.13 0.00 0.00 81 1031.5
20200122141445 14 0 0.0 0.0 0.13 0.00 0.00 83 1031.4
20200122140945 13 0 0.0 0.0 0.13 0.00 0.00 85 1031.4
20200122140445 12 0 0.0 0.0 0.13 0.00 0.00 86 1031.4
20200122135945 11 0 0.0 0.0 0.13 0.00 0.00 86 1031.4
20200122135445 11 0 0.0 0.0 0.13 0.00 0.00 86 1031.5
20200122134945 10 0 0.0 0.0 0.13 0.00 0.00 87 1031.5
20200122134445 10 0 0.0 0.0 0.13 0.00 0.00 87 1031.5
20200122133945 9 0 0.0 0.0 0.13 0.00 0.00 87 1031.4
20200122133444 9 0 0.0 0.0 0.13 0.00 0.00 88 1031.4
20200122132945 8 0 0.0 0.0 0.13 0.00 0.00 88 1031.5
20200122132445 8 0 0.0 0.0 0.13 0.00 0.00 89 1031.5
20200122131944 7 0 0.0 0.0 0.13 0.00 0.00 89 1031.5
20200122131445 7 0 0.0 0.0 0.13 0.00 0.00 89 1031.5
20200122130944 7 0 0.0 0.0 0.13 0.00 0.00 89 1031.4
20200122130444 6 0 0.0 0.0 0.13 0.00 0.00 90 1031.3
20200122125945 6 0 0.0 0.0 0.13 0.00 0.00 90 1031.2
20200122125445 6 0 0.0 0.0 0.13 0.00 0.00 90 1031.1
20200122124944 6 0 0.0 0.0 0.13 0.00 0.00 91 1031.1
20200122124445 6 0 0.0 0.0 0.13 0.00 0.00 90 1031.0
20200122123944 5 0 0.0 0.0 0.13 0.00 0.00 90 1030.9
20200122123444 5 0 0.0 0.0 0.13 0.00 0.00 90 1031.0
20200122122945 5 0 0.0 0.0 0.13 0.00 0.00 90 1031.0
20200122122444 5 0 0.0 0.0 0.13 0.00 0.00 90 1030.9
20200122121944 6 0 0.0 0.0 0.13 0.00 0.00 90 1030.8
20200122121445 5 0 0.0 0.0 0.13 0.00 0.00 91 1030.7
20200122120944 5 0 0.0 0.0 0.13 0.00 0.00 91 1030.7
20200122120444 5 0 0.0 0.0 0.13 0.00 0.00 91 1030.6
20200122115945 6 0 0.0 0.0 0.13 0.00 0.00 90 1030.4
20200122115444 6 0 0.0 0.0 0.13 0.00 0.00 90 1030.4
20200122114945 6 0 0.0 0.0 0.13 0.00 0.00 90 1030.3
20200122114445 6 0 0.0 0.0 0.13 0.00 0.00 91 1030.2
20200122113944 6 0 0.0 0.0 0.13 0.00 0.00 90 1030.1
20200122113444 6 0 0.0 0.0 0.13 0.00 0.00 90 1030.2
20200122112945 6 0 0.0 0.0 0.13 0.00 0.00 90 1030.2
20200122112444 6 0 0.0 0.0 0.13 0.00 0.00 89 1030.2
20200122111944 7 0 0.0 0.0 0.13 0.00 0.00 89 1030.1
20200122111445 7 0 0.0 0.0 0.13 0.00 0.00 89 1030.2
20200122110944 7 0 0.0 0.0 0.13 0.00 0.00 90 1030.1
20200122110444 7 0 0.0 0.0 0.13 0.00 0.00 89 1030.0
20200122105945 7 0 0.0 0.0 0.13 0.00 0.00 89 1029.9
20200122105444 7 0 0.0 0.0 0.13 0.00 0.00 89 1029.9
20200122104945 7 0 0.0 0.0 0.13 0.00 0.00 89 1029.8
20200122104447 7 0 0.0 0.0 0.13 0.00 0.00 89 1029.7
20200122103944 7 0 0.0 0.0 0.13 0.00 0.00 89 1029.6
20200122103444 7 0 0.0 0.0 0.13 0.00 0.00 89 1029.7
20200122102945 7 0 0.0 0.0 0.13 0.00 0.00 89 1029.5
20200122102444 7 0 0.0 0.0 0.13 0.00 0.00 89 1029.5
20200122101944 7 0 0.0 0.0 0.13 0.00 0.00 89 1029.3
20200122101445 7 0 0.0 0.0 0.13 0.00 0.00 89 1029.3
20200122100945 7 0 0.0 0.0 0.13 0.00 0.00 89 1029.3
20200122100444 7 0 0.0 0.0 0.13 0.00 0.00 88 1029.3
20200122095945 7 0 0.0 0.0 0.13 0.00 0.00 88 1029.4
20200122095444 7 0 0.0 0.0 0.13 0.00 0.00 88 1029.4
20200122094946 7 0 0.0 0.0 0.13 0.00 0.00 89 1029.6
20200122094445 8 0 0.0 0.0 0.13 0.00 0.00 88 1029.6
20200122093944 8 0 0.0 0.0 0.13 0.00 0.00 88 1029.6
20200122093444 8 0 0.0 0.0 0.13 0.00 0.00 88 1029.6
20200122092945 8 0 0.0 0.0 0.13 0.00 0.00 88 1029.6
20200122092444 8 0 0.0 0.0 0.13 0.00 0.00 88 1029.5
20200122091944 8 0 0.0 0.0 0.13 0.00 0.00 87 1029.5
20200122091445 9 0 0.0 0.0 0.13 0.00 0.00 87 1029.6
20200122090944 9 0 0.0 0.0 0.13 0.00 0.00 87 1029.7
20200122090444 9 0 0.0 0.0 0.13 0.00 0.00 86 1029.8
20200122085945 9 0 0.0 0.0 0.13 0.00 0.00 85 1029.8
20200122085444 9 0 0.0 0.0 0.13 0.00 0.00 85 1029.9
20200122084944 10 0 0.0 0.0 0.13 0.00 0.00 85 1029.9
20200122084445 10 0 0.0 0.0 0.13 0.00 0.00 85 1029.8
20200122083944 10 0 0.0 0.0 0.13 0.00 0.00 85 1029.7
20200122083445 10 0 0.0 0.0 0.13 0.00 0.00 85 1029.7
20200122082945 10 0 0.0 0.0 0.13 0.00 0.00 84 1029.8
20200122082444 10 0 0.0 0.0 0.13 0.00 0.00 84 1029.8
20200122081944 10 0 0.0 0.0 0.13 0.00 0.00 85 1029.8
20200122081445 11 0 0.0 0.0 0.13 0.00 0.00 84 1029.7
20200122080944 11 0 0.0 0.0 0.13 0.00 0.00 84 1029.7
20200122080445 11 0 0.0 0.0 0.13 0.00 0.00 83 1029.8
20200122075945 12 0 0.0 0.0 0.13 0.00 0.00 83 1029.8
20200122075445 12 0 0.0 0.0 0.13 0.00 0.00 83 1029.8
20200122074944 12 0 0.0 0.0 0.13 0.00 0.00 82 1029.9
20200122074445 12 0 0.0 0.0 0.13 0.00 0.00 82 1029.9
20200122073944 13 0 0.0 0.0 0.13 0.00 0.00 81 1029.9
20200122073444 13 0 0.0 0.0 0.13 0.00 0.00 80 1030.0
20200122072948 13 0 0.0 0.0 0.13 0.00 0.00 79 1030.0
20200122072444 14 0 0.0 0.0 0.13 0.00 0.00 80 1030.0
20200122071944 14 0 0.0 0.0 0.13 0.00 0.00 78 1030.0
20200122071445 14 0 0.0 0.0 0.13 0.00 0.00 77 1029.9
20200122070944 14 0 0.0 0.0 0.13 0.00 0.00 78 1029.9
20200122070444 14 0 0.0 0.0 0.13 0.00 0.00 79 1029.9
20200122065944 14 0 0.0 0.0 0.13 0.00 0.00 80 1029.9
20200122065444 13 0 0.0 0.0 0.13 0.00 0.00 80 1029.9
20200122064944 13 0 0.0 0.0 0.13 0.00 0.00 81 1029.7
20200122064446 13 0 0.0 0.0 0.13 0.00 0.00 81 1029.7
20200122063944 13 0 0.0 0.0 0.13 0.00 0.00 80 1029.5
20200122063444 13 0 0.0 0.0 0.13 0.00 0.00 80 1029.7
20200122062944 14 0 0.0 0.0 0.13 0.00 0.00 80 1029.7
20200122062444 14 0 0.0 0.0 0.13 0.00 0.00 79 1029.6
20200122061944 14 0 0.0 0.0 0.13 0.00 0.00 79 1029.6
20200122061444 14 0 0.0 0.0 0.13 0.00 0.00 78 1029.6
20200122060944 14 0 0.0 0.0 0.13 0.00 0.00 77 1029.5
20200122060444 14 0 0.0 0.0 0.13 0.00 0.00 76 1029.5
20200122055944 14 0 0.0 0.0 0.13 0.00 0.00 76 1029.4
20200122055444 14 0 0.0 0.0 0.13 0.00 0.00 76 1029.6
20200122054944 14 0 0.0 0.0 0.13 0.00 0.00 76 1029.6
20200122054444 14 0 0.0 0.0 0.13 0.00 0.00 76 1029.5
20200122053944 14 0 0.0 0.0 0.13 0.00 0.00 77 1029.6
20200122053444 14 0 0.0 0.0 0.13 0.00 0.00 77 1029.7
20200122052944 14 0 0.0 0.0 0.13 0.00 0.00 77 1029.6
20200122052444 14 0 0.0 0.0 0.13 0.00 0.00 78 1029.7
20200122051944 14 0 0.0 0.0 0.13 0.00 0.00 79 1029.6
20200122051444 14 0 0.0 0.0 0.13 0.00 0.00 78 1029.6
20200122050944 14 0 0.0 0.0 0.13 0.00 0.00 78 1029.5
20200122050444 14 0 0.0 0.0 0.13 0.00 0.00 79 1029.6
20200122045945 14 0 0.0 0.0 0.13 0.00 0.00 79 1029.6
20200122045444 14 0 0.0 0.0 0.13 0.00 0.00 79 1029.6
20200122044944 14 0 0.0 0.0 0.13 0.00 0.00 79 1029.7
20200122044444 14 0 0.0 0.0 0.13 0.00 0.00 78 1029.8
20200122043943 14 0 0.0 0.0 0.13 0.00 0.00 79 1029.9
20200122043443 14 0 0.0 0.0 0.13 0.00 0.00 79 1029.8